Location: Chin
(49.7667°N, 112.4500°W)
Time: 10:34:13
(UTC+00:00)

N. Korean satellite - Pass Details

Date: 03 December 2021
Orbit: 447 x 491 km, 97.3° (Epoch: 20 January)

Event Time Altitude Azimuth Distance (km) Brightness Sun altitude
Rises 00:13:49 0° 182° (S) 2,535 10.6 -6.8°
Reaches altitude 10° 00:15:58 10° 190° (S) 1,653 9.8 -7.1°
Maximum altitude 00:19:20 40° 262° (W) 710 8.1 -7.6°
Drops below altitude 10° 00:22:41 10° 333° (NNW) 1,640 9.3 -8.1°
Sets 00:24:49 0° 341° (NNW) 2,513 10.1 -8.4°
